SCP
-0 -0 -0 -0 -0 -0 -0 0 0 0 0 0 0 0 0 0 0 0 0 0 0 0 0 0 0 0 0 -0 0 0 0 0 0 0 0 -0 0 0 -0 -0 -0 0 0
-0 -0 -0 0 0 0 -0 -0 0 0 0 0 0 0 0 0 0 0 0 0 0 0 0 0 0 0 0 -0 -0 0 0 0 0 0 0 0 0 0 0 0 0 0 0
-0 0 0 0 0 0 0 0 -0 0 0 0 0 0 0 0 0 0 0 0 0 0 0 0 0 0 0 0 0 0 0 0 0 0 0 0 0 0 0 0 0 0 0
0 -0 -0 -0 -0 -0 -0 0 0 0 0 0 0 0 0 0 0 0 0 0 0 -0 -0 0 0 0 0 0 0 0 0 0 0 0 0 0 0 0 0 0 0 0 0
-0 0 -0 -0 -0 -0 -0 -0 0 0 0 0 0 0 0 0 0 0 0 0 -0 -0 -0 0 0 0 0 0 0 0 0 0 0 0 0 0 0 0 0 0 0 0 0
0 0 0 -0 -0 -0 -0 -0 -0 -0 0 0 0 0 0 0 0 0 0 0 0 0 0 0 0 0 0 0 0 0 0 0 0 0 0 0 -0 0 0 0 0 0 0
0 0 0 -0 -0 -0 0 -0 0 0 0 0 0 0 0 0 0 0 0 0 0 0 0 0 0 0 0 0 0 0 0 0 0 0 0 0 0 0 0 0 0 0 0
0 0 0 0 0 0 0 0 0 0 0 0 0 0 0 0 0 0 0 0 0 0 0 0 0 0 0 0 0 0 0 0 0 0 0 0 0 0 0 0 0 0 0
0 0 0 0 0 0 0 0 0 0 0 0 0 0 0 0 0 0 0 0 0 0 0 0 0 0 0 0 0 0 0 0 0 0 0 0 0 0 0 0 0 0 0
0 0 0 0 0 0 0 0 0 0 0 0 0 0 0 0 0 0 0 0 0 0 0 0 0 0 0 0 0 0 0 0 0 0 0 0 0 0 0 0 0 0 0
0 0 0 0 0 0 0 0 0 0 0 0 0 0 0 0 0 0 0 0 0 0 0 0 0 0 0 0 0 0 0 0 0 0 0 0 0 0 0 0 0 0 0
0 0 0 0 0 0 0 0 0 0 0 0 0 0 0 0 0 0 0 0 0 0 0 0 0 0 0 0 0 0 0 0 0 0 0 0 0 0 0 0 0 0 0
0 0 0 0 0 0 0 0 0 0 0 0 0 0 0 0 0 0 0 0 0 0 0 0 0 0 0 0 0 0 0 0 0 0 0 0 0 0 0 0 0 0 0
0 0 0 0 0 0 0 0 0 0 0 0 0 0 0 0 0 0 0 0 0 0 0 0 0 0 0 0 0 0 0 0 0 0 0 0 0 0 0 0 0 0 0
0 0 0 0 0 0 0 0 0 0 0 0 0 0 0 0 0 0 0 0 0 0 0 0 0 0 0 0 0 0 0 0 0 0 0 0 0 0 0 0 0 0 0
0 0 0 0 0 0 0 0 0 0 0 0 0 0 0 0 0 0 0 0 0 0 0 0 0 0 0 0 0 0 0 0 0 0 0 0 0 0 0 0 0 0 0
0 0 0 0 0 0 0 0 0 0 0 0 0 0 0 0 0 0 0 0 0 0 0 0 0 0 0 0 0 0 0 0 0 0 0 0 0 0 0 0 0 0 0
0 0 0 0 0 0 0 0 0 0 0 0 0 0 0 0 0 0 0 0 0 0 0 0 0 0 0 0 0 0 0 0 0 0 0 0 0 0 0 0 0 0 0
0 -0 0 0 0 0 0 0 0 0 0 0 0 0 0 0 0 0 0 0 0 0 0 0 0 0 0 0 0 0 0 0 0 0 0 0 0 0 0 0 0 0 0
0 0 0 0 0 0 0 0 0 0 0 0 0 0 0 0 0 0 0 0 0 0 0 0 0 0 -0 0 0 0 0 0 0 0 0 0 0 0 0 0 0 0 0
-0 -0 0 0 0 0 0 0 0 0 0 0 0 0 0 0 0 0 0 0 0 0 0 0 -0 -0 0 0 0 0 0 0 0 0 0 0 0 0 0 0 0 0 0
-0 -0 -0 -0 -0 -0 -0 -0 -0 -0 -0 -0 0 0 0 0 0 0 0 0 0 0 0 0 0 -0 -0 -0 -0 -0 0 0 0 0 0 0 0 0 0 0 0 0 0
-0 -0 -0 -0 -0 -0 -0 -0 -0 -0 -0 0 0 0 0 0 0 0 0 0 0 0 0 0 0 0 -0 -0 -0 -0 -0 0 0 0 0 0 0 0 0 0 0 0 0
0 -0 -0 -0 -0 -0 -0 -0 -0 -0 -0 -0 -0 0 0 0 0 -0 0 -0 0 -0 0 0 0 0 0 0 -0 -0 0 0 0 0 0 0 0 0 0 0 0 0 0
0 0 0 0 -0 -0 -0 -0 -0 -0 -0 -0 -0 0 0 0 0 0 0 0 -0 -0 -0 0 0 0 0 -0 -0 -0 -0 -0 -0 0 0 0 0 0 0 0 0 0 0
0 0 0 0 0 0 0 0 0 0 0 0 0 0 0 0 0 0 0 0 -0 -0 0 -0 -0 0 0 0 -0 0 0 -0 -0 0 0 0 0 0 0 0 0 0 0
Wind_Speed_500mb
34 41 46 11 8 6 5 9 9 9 6 4 4 2 2 4 7 11 13 13 12 13 14 12 13 14 9 4 7 11 5 2 1 2 3 6 9 16 18 11 10 6 10
27 36 39 26 5 6 7 5 6 7 6 5 5 5 4 5 7 10 14 16 17 17 19 16 17 17 12 5 3 10 3 2 3 3 5 7 5 10 16 17 11 3 3
33 32 29 31 15 11 12 12 7 8 7 8 8 9 10 10 10 12 14 17 19 19 20 19 19 19 16 9 5 10 3 3 4 4 7 5 2 4 6 8 7 4 2
22 20 18 16 16 7 2 10 18 12 9 9 11 12 13 13 11 12 13 18 21 19 22 21 20 20 19 13 9 10 7 6 7 6 9 2 1 3 5 6 4 4 4
17 19 17 15 13 12 14 10 5 19 18 16 14 15 17 17 17 11 16 17 21 20 22 21 23 22 20 19 16 13 12 11 12 11 10 6 8 11 7 10 9 6 9
16 16 12 7 4 5 9 15 14 14 18 25 22 21 20 21 23 21 19 21 23 24 25 25 24 26 25 26 24 18 18 17 18 18 14 13 16 17 22 17 12 11 12
16 15 13 12 9 4 1 14 20 22 21 18 26 27 29 29 27 29 28 24 27 27 28 30 30 31 33 34 33 24 23 22 22 25 24 23 17 21 28 19 15 16 16
25 22 18 12 12 9 5 9 17 23 25 24 22 31 33 34 35 35 34 32 30 32 32 34 37 39 40 41 38 31 29 28 28 31 31 28 24 25 29 31 22 21 22
28 27 25 23 18 15 12 10 14 17 24 27 29 27 34 39 39 39 38 37 38 38 37 36 39 41 42 43 41 37 35 33 32 34 35 32 29 28 30 29 31 30 27
26 26 25 23 22 20 17 18 16 18 23 28 29 29 31 33 42 41 43 43 43 43 44 45 44 44 46 46 41 40 40 38 38 38 38 35 31 29 33 32 31 30 31
28 30 28 27 24 22 21 17 20 20 22 29 27 31 34 33 33 43 47 48 49 49 48 47 49 51 52 51 44 44 44 44 42 42 42 37 30 28 30 32 31 32 34
40 40 38 34 31 26 24 23 22 20 23 21 24 30 31 32 35 34 41 47 51 55 54 53 53 52 55 59 54 47 50 48 49 48 46 41 36 31 32 34 34 33 34
45 44 45 41 38 33 28 26 25 24 22 25 24 28 30 33 35 37 36 39 48 48 55 57 57 59 61 63 63 62 56 52 54 55 53 49 42 39 38 38 40 40 37
42 42 44 49 47 40 34 30 27 27 25 24 25 29 34 36 39 35 35 38 37 49 55 59 62 62 65 69 69 72 71 62 59 59 60 56 50 47 46 45 45 48 46
42 46 47 47 48 49 45 36 30 28 28 28 28 28 31 32 43 43 44 38 35 34 49 63 66 66 68 74 78 77 81 78 67 64 62 62 61 56 53 54 53 52 53
40 41 45 48 51 51 48 46 40 33 30 29 31 32 32 33 35 47 44 49 43 33 38 47 72 72 74 77 84 89 87 88 81 74 73 70 69 65 60 59 57 54 55
39 40 40 43 46 49 52 51 46 41 36 31 32 34 35 37 38 40 46 52 50 56 39 47 44 68 82 86 89 94 98 97 95 86 80 74 72 70 68 64 63 56 56
38 41 41 41 43 46 47 50 51 49 43 38 35 35 36 36 39 42 44 52 55 54 59 59 36 49 70 94 96 102 101 100 100 99 90 79 83 78 72 68 67 60 58
35 38 41 43 44 45 46 48 50 52 52 49 44 41 41 41 39 39 43 47 53 62 63 60 62 49 39 45 93 117 109 96 92 90 95 92 85 86 79 71 72 68 61
31 34 37 42 45 47 46 46 47 49 53 55 54 53 49 47 46 43 41 43 49 52 60 66 68 65 65 47 42 86 103 96 97 95 89 84 80 88 86 80 75 75 68
28 32 37 39 44 45 50 51 52 56 54 53 56 58 57 56 53 52 49 46 46 49 54 57 67 75 83 68 55 35 95 86 98 110 101 100 95 90 94 96 82 84 77
26 30 34 39 43 46 49 51 52 51 53 56 55 55 56 59 61 60 57 55 55 51 50 54 59 67 74 66 69 76 48 65 93 111 113 112 108 103 95 98 100 92 84
26 32 35 39 42 45 46 46 46 46 49 50 56 60 63 62 62 64 65 62 59 58 57 57 59 61 71 73 59 41 36 20 59 76 98 108 108 114 110 105 98 104 91
25 30 32 36 39 42 44 48 52 54 55 55 56 55 57 59 62 64 65 66 66 63 61 61 60 62 65 71 76 35 49 56 64 55 81 96 109 112 117 110 111 107 102
20 23 27 31 34 37 40 44 46 48 49 50 50 51 54 57 59 60 63 67 68 69 68 65 64 65 65 66 65 78 81 69 66 70 70 55 71 93 97 113 116 108 110
19 20 24 27 30 33 36 39 41 44 46 49 51 54 55 56 59 61 63 64 66 69 71 72 68 65 67 69 68 68 68 65 65 72 79 78 81 87 74 70 70 80 89
Wind_Direction_500mb
15 27 26 77 57 74 139 142 151 162 166 155 143 135 134 150 169 186 208 213 219 212 213 209 208 211 218 272 330 342 353 34 68 92 83 96 118 106 101 103 95 80 105
19 35 33 41 61 36 8 166 177 177 184 215 244 240 229 217 204 203 214 221 220 222 223 225 220 217 224 253 327 339 323 151 133 115 109 100 105 130 149 149 162 160 112
72 41 39 37 32 10 357 339 216 216 209 227 231 254 251 233 225 223 230 231 232 231 230 234 227 227 234 205 337 335 272 189 158 147 150 134 37 231 215 206 210 217 209
88 84 97 94 91 128 323 332 327 276 237 253 267 264 268 267 245 244 244 242 243 240 238 241 236 230 225 245 295 319 253 216 188 178 168 177 342 273 285 270 256 208 118
77 88 82 94 105 140 183 201 242 308 290 251 257 275 285 291 288 260 256 254 251 245 245 243 240 235 236 252 278 299 241 221 200 200 215 215 197 253 285 276 262 247 227
65 62 59 74 77 77 202 200 204 205 283 285 251 255 263 273 287 288 266 257 259 247 244 252 249 251 254 261 271 281 237 225 215 218 226 224 219 250 279 269 257 265 262
23 28 32 32 20 1 184 206 224 223 230 244 276 253 252 259 263 272 276 263 259 256 245 246 255 261 263 263 268 266 236 227 221 220 230 236 231 255 263 265 262 276 273
338 345 337 338 337 349 292 224 237 243 242 243 250 280 270 259 255 256 262 263 258 257 255 253 254 255 258 262 268 259 234 230 228 226 232 240 239 245 261 265 272 278 277
319 315 320 317 312 303 299 283 273 248 245 247 250 249 275 276 263 257 254 255 260 261 257 252 254 258 257 261 267 251 233 232 233 230 235 243 245 241 255 267 270 274 274
324 323 316 320 316 307 291 281 277 273 255 244 245 251 251 260 274 264 262 258 255 256 261 263 257 253 257 261 262 243 234 234 235 233 238 246 253 251 266 271 272 271 269
345 341 335 324 320 312 304 298 275 263 257 251 246 251 252 254 257 279 277 271 265 264 261 258 259 259 256 258 255 242 237 239 239 237 238 245 251 256 266 276 280 276 269
11 5 356 343 332 322 311 302 295 283 264 263 256 258 251 253 253 258 270 279 278 269 265 264 261 256 255 253 247 242 241 243 245 241 239 242 247 257 263 271 279 280 273
22 18 14 6 355 340 326 313 303 292 285 270 274 267 262 259 258 255 258 268 272 276 270 267 263 258 252 248 249 246 245 247 248 246 242 243 249 256 262 269 276 280 276
26 27 23 19 13 6 353 338 324 310 301 292 283 275 265 266 267 267 264 268 270 271 272 271 267 263 256 250 248 251 250 249 249 248 243 243 248 253 261 269 275 279 277
23 24 27 28 25 18 12 5 350 336 319 314 307 298 286 274 269 269 269 272 278 272 284 275 270 267 262 255 249 249 252 249 250 249 246 245 247 251 257 263 272 276 275
17 20 20 25 26 28 26 18 11 0 349 330 322 316 309 301 283 270 278 270 275 281 270 272 271 268 267 264 258 250 251 250 249 249 246 246 248 251 256 256 264 271 271
14 17 19 19 21 25 26 26 25 18 6 354 342 332 323 317 307 294 279 279 277 276 284 267 274 277 264 266 261 259 251 251 248 250 253 249 250 252 253 257 259 267 266
16 16 18 21 19 22 26 27 27 25 22 14 1 351 340 329 319 311 305 287 285 279 280 281 295 267 276 268 263 259 258 254 250 252 252 251 252 250 251 256 255 264 263
23 20 19 20 21 21 23 26 28 28 25 22 16 8 357 349 338 323 313 307 293 289 286 284 285 288 280 281 269 261 253 254 257 256 252 253 251 249 250 253 253 258 261
36 32 28 24 23 22 22 22 24 27 27 25 21 17 8 1 355 348 336 318 308 302 295 289 285 281 288 304 306 261 251 251 257 253 250 251 258 249 255 250 249 254 258
35 32 31 29 28 24 23 22 22 19 22 23 20 18 15 9 3 359 353 343 332 320 311 307 300 295 280 290 310 318 262 261 254 259 255 251 251 253 255 251 251 249 254
31 31 30 28 26 26 26 25 24 20 20 19 21 19 14 11 9 5 359 356 352 343 335 323 315 309 297 300 308 298 314 260 246 247 251 251 250 254 255 251 249 250 253
20 22 20 21 20 19 18 16 15 16 16 16 14 13 14 13 11 8 7 2 356 355 353 345 334 328 313 303 310 296 296 298 314 261 248 250 253 252 248 252 249 249 249
11 12 10 11 11 10 9 10 11 12 13 13 10 9 9 9 8 7 6 5 2 358 352 351 346 336 329 316 306 303 277 288 288 288 258 251 250 249 247 245 249 247 246
357 360 4 4 4 4 4 4 4 5 5 4 3 4 4 4 6 6 5 3 3 0 356 350 345 343 337 330 323 308 302 303 280 288 280 266 253 249 251 251 247 242 244
347 348 351 355 357 359 359 359 358 359 358 356 357 360 1 360 360 0 2 2 1 359 357 352 347 344 340 334 327 320 307 300 294 285 282 270 261 256 246 248 239 255 264
Wind_Speed_850mb
34 41 46 11 8 6 5 9 9 9 6 4 4 2 2 4 7 11 13 13 12 13 14 12 13 14 9 4 7 11 5 2 1 2 3 6 9 16 18 11 10 6 10
27 36 39 26 5 6 7 5 6 7 6 5 5 5 4 5 7 10 14 16 17 17 19 16 17 17 12 5 3 10 3 2 3 3 5 7 5 10 16 17 11 3 3
33 32 29 31 15 11 12 12 7 8 7 8 8 9 10 10 10 12 14 17 19 19 20 19 19 19 16 9 5 10 3 3 4 4 7 5 2 4 6 8 7 4 2
22 20 18 16 16 7 2 10 18 12 9 9 11 12 13 13 11 12 13 18 21 19 22 21 20 20 19 13 9 10 7 6 7 6 9 2 1 3 5 6 4 4 4
17 19 17 15 13 12 14 10 5 19 18 16 14 15 17 17 17 11 16 17 21 20 22 21 23 22 20 19 16 13 12 11 12 11 10 6 8 11 7 10 9 6 9
16 16 12 7 4 5 9 15 14 14 18 25 22 21 20 21 23 21 19 21 23 24 25 25 24 26 25 26 24 18 18 17 18 18 14 13 16 17 22 17 12 11 12
16 15 13 12 9 4 1 14 20 22 21 18 26 27 29 29 27 29 28 24 27 27 28 30 30 31 33 34 33 24 23 22 22 25 24 23 17 21 28 19 15 16 16
25 22 18 12 12 9 5 9 17 23 25 24 22 31 33 34 35 35 34 32 30 32 32 34 37 39 40 41 38 31 29 28 28 31 31 28 24 25 29 31 22 21 22
28 27 25 23 18 15 12 10 14 17 24 27 29 27 34 39 39 39 38 37 38 38 37 36 39 41 42 43 41 37 35 33 32 34 35 32 29 28 30 29 31 30 27
26 26 25 23 22 20 17 18 16 18 23 28 29 29 31 33 42 41 43 43 43 43 44 45 44 44 46 46 41 40 40 38 38 38 38 35 31 29 33 32 31 30 31
28 30 28 27 24 22 21 17 20 20 22 29 27 31 34 33 33 43 47 48 49 49 48 47 49 51 52 51 44 44 44 44 42 42 42 37 30 28 30 32 31 32 34
40 40 38 34 31 26 24 23 22 20 23 21 24 30 31 32 35 34 41 47 51 55 54 53 53 52 55 59 54 47 50 48 49 48 46 41 36 31 32 34 34 33 34
45 44 45 41 38 33 28 26 25 24 22 25 24 28 30 33 35 37 36 39 48 48 55 57 57 59 61 63 63 62 56 52 54 55 53 49 42 39 38 38 40 40 37
42 42 44 49 47 40 34 30 27 27 25 24 25 29 34 36 39 35 35 38 37 49 55 59 62 62 65 69 69 72 71 62 59 59 60 56 50 47 46 45 45 48 46
42 46 47 47 48 49 45 36 30 28 28 28 28 28 31 32 43 43 44 38 35 34 49 63 66 66 68 74 78 77 81 78 67 64 62 62 61 56 53 54 53 52 53
40 41 45 48 51 51 48 46 40 33 30 29 31 32 32 33 35 47 44 49 43 33 38 47 72 72 74 77 84 89 87 88 81 74 73 70 69 65 60 59 57 54 55
39 40 40 43 46 49 52 51 46 41 36 31 32 34 35 37 38 40 46 52 50 56 39 47 44 68 82 86 89 94 98 97 95 86 80 74 72 70 68 64 63 56 56
38 41 41 41 43 46 47 50 51 49 43 38 35 35 36 36 39 42 44 52 55 54 59 59 36 49 70 94 96 102 101 100 100 99 90 79 83 78 72 68 67 60 58
35 38 41 43 44 45 46 48 50 52 52 49 44 41 41 41 39 39 43 47 53 62 63 60 62 49 39 45 93 117 109 96 92 90 95 92 85 86 79 71 72 68 61
31 34 37 42 45 47 46 46 47 49 53 55 54 53 49 47 46 43 41 43 49 52 60 66 68 65 65 47 42 86 103 96 97 95 89 84 80 88 86 80 75 75 68
28 32 37 39 44 45 50 51 52 56 54 53 56 58 57 56 53 52 49 46 46 49 54 57 67 75 83 68 55 35 95 86 98 110 101 100 95 90 94 96 82 84 77
26 30 34 39 43 46 49 51 52 51 53 56 55 55 56 59 61 60 57 55 55 51 50 54 59 67 74 66 69 76 48 65 93 111 113 112 108 103 95 98 100 92 84
26 32 35 39 42 45 46 46 46 46 49 50 56 60 63 62 62 64 65 62 59 58 57 57 59 61 71 73 59 41 36 20 59 76 98 108 108 114 110 105 98 104 91
25 30 32 36 39 42 44 48 52 54 55 55 56 55 57 59 62 64 65 66 66 63 61 61 60 62 65 71 76 35 49 56 64 55 81 96 109 112 117 110 111 107 102
20 23 27 31 34 37 40 44 46 48 49 50 50 51 54 57 59 60 63 67 68 69 68 65 64 65 65 66 65 78 81 69 66 70 70 55 71 93 97 113 116 108 110
19 20 24 27 30 33 36 39 41 44 46 49 51 54 55 56 59 61 63 64 66 69 71 72 68 65 67 69 68 68 68 65 65 72 79 78 81 87 74 70 70 80 89
Wind_Direction_850mb
15 27 26 77 57 74 139 142 151 162 166 155 143 135 134 150 169 186 208 213 219 212 213 209 208 211 218 272 330 342 353 34 68 92 83 96 118 106 101 103 95 80 105
19 35 33 41 61 36 8 166 177 177 184 215 244 240 229 217 204 203 214 221 220 222 223 225 220 217 224 253 327 339 323 151 133 115 109 100 105 130 149 149 162 160 112
72 41 39 37 32 10 357 339 216 216 209 227 231 254 251 233 225 223 230 231 232 231 230 234 227 227 234 205 337 335 272 189 158 147 150 134 37 231 215 206 210 217 209
88 84 97 94 91 128 323 332 327 276 237 253 267 264 268 267 245 244 244 242 243 240 238 241 236 230 225 245 295 319 253 216 188 178 168 177 342 273 285 270 256 208 118
77 88 82 94 105 140 183 201 242 308 290 251 257 275 285 291 288 260 256 254 251 245 245 243 240 235 236 252 278 299 241 221 200 200 215 215 197 253 285 276 262 247 227
65 62 59 74 77 77 202 200 204 205 283 285 251 255 263 273 287 288 266 257 259 247 244 252 249 251 254 261 271 281 237 225 215 218 226 224 219 250 279 269 257 265 262
23 28 32 32 20 1 184 206 224 223 230 244 276 253 252 259 263 272 276 263 259 256 245 246 255 261 263 263 268 266 236 227 221 220 230 236 231 255 263 265 262 276 273
338 345 337 338 337 349 292 224 237 243 242 243 250 280 270 259 255 256 262 263 258 257 255 253 254 255 258 262 268 259 234 230 228 226 232 240 239 245 261 265 272 278 277
319 315 320 317 312 303 299 283 273 248 245 247 250 249 275 276 263 257 254 255 260 261 257 252 254 258 257 261 267 251 233 232 233 230 235 243 245 241 255 267 270 274 274
324 323 316 320 316 307 291 281 277 273 255 244 245 251 251 260 274 264 262 258 255 256 261 263 257 253 257 261 262 243 234 234 235 233 238 246 253 251 266 271 272 271 269
345 341 335 324 320 312 304 298 275 263 257 251 246 251 252 254 257 279 277 271 265 264 261 258 259 259 256 258 255 242 237 239 239 237 238 245 251 256 266 276 280 276 269
11 5 356 343 332 322 311 302 295 283 264 263 256 258 251 253 253 258 270 279 278 269 265 264 261 256 255 253 247 242 241 243 245 241 239 242 247 257 263 271 279 280 273
22 18 14 6 355 340 326 313 303 292 285 270 274 267 262 259 258 255 258 268 272 276 270 267 263 258 252 248 249 246 245 247 248 246 242 243 249 256 262 269 276 280 276
26 27 23 19 13 6 353 338 324 310 301 292 283 275 265 266 267 267 264 268 270 271 272 271 267 263 256 250 248 251 250 249 249 248 243 243 248 253 261 269 275 279 277
23 24 27 28 25 18 12 5 350 336 319 314 307 298 286 274 269 269 269 272 278 272 284 275 270 267 262 255 249 249 252 249 250 249 246 245 247 251 257 263 272 276 275
17 20 20 25 26 28 26 18 11 0 349 330 322 316 309 301 283 270 278 270 275 281 270 272 271 268 267 264 258 250 251 250 249 249 246 246 248 251 256 256 264 271 271
14 17 19 19 21 25 26 26 25 18 6 354 342 332 323 317 307 294 279 279 277 276 284 267 274 277 264 266 261 259 251 251 248 250 253 249 250 252 253 257 259 267 266
16 16 18 21 19 22 26 27 27 25 22 14 1 351 340 329 319 311 305 287 285 279 280 281 295 267 276 268 263 259 258 254 250 252 252 251 252 250 251 256 255 264 263
23 20 19 20 21 21 23 26 28 28 25 22 16 8 357 349 338 323 313 307 293 289 286 284 285 288 280 281 269 261 253 254 257 256 252 253 251 249 250 253 253 258 261
36 32 28 24 23 22 22 22 24 27 27 25 21 17 8 1 355 348 336 318 308 302 295 289 285 281 288 304 306 261 251 251 257 253 250 251 258 249 255 250 249 254 258
35 32 31 29 28 24 23 22 22 19 22 23 20 18 15 9 3 359 353 343 332 320 311 307 300 295 280 290 310 318 262 261 254 259 255 251 251 253 255 251 251 249 254
31 31 30 28 26 26 26 25 24 20 20 19 21 19 14 11 9 5 359 356 352 343 335 323 315 309 297 300 308 298 314 260 246 247 251 251 250 254 255 251 249 250 253
20 22 20 21 20 19 18 16 15 16 16 16 14 13 14 13 11 8 7 2 356 355 353 345 334 328 313 303 310 296 296 298 314 261 248 250 253 252 248 252 249 249 249
11 12 10 11 11 10 9 10 11 12 13 13 10 9 9 9 8 7 6 5 2 358 352 351 346 336 329 316 306 303 277 288 288 288 258 251 250 249 247 245 249 247 246
357 360 4 4 4 4 4 4 4 5 5 4 3 4 4 4 6 6 5 3 3 0 356 350 345 343 337 330 323 308 302 303 280 288 280 266 253 249 251 251 247 242 244
347 348 351 355 357 359 359 359 358 359 358 356 357 360 1 360 360 0 2 2 1 359 357 352 347 344 340 334 327 320 307 300 294 285 282 270 261 256 246 248 239 255 264